| Date | Time | Temp. (oF) | Dew Point (oF) | Rel. Hum. (%) | Press. (in.) | Wind Dir. | Wind Speed (mph) | Hourly Rainfall (in.) |
|
|---|---|---|---|---|---|---|---|---|---|
| 1 | 08/31 | 00:00 | 78 | 77 | 99 | 29.72 | E | 9 | 0.00 |
| 2 | 08/30 | 23:00 | 78 | 76 | 96 | 29.74 | NE | 4 | 0.00 |
| 3 | 08/30 | 22:00 | 78 | 77 | 97 | 29.76 | ESE | 4 | 0.00 |
| 4 | 08/30 | 21:00 | 78 | 76 | 96 | 29.77 | SE | 5 | 0.00 |
| 5 | 08/30 | 20:00 | 79 | 76 | 92 | 29.77 | ESE | 10 | 0.00 |
| 6 | 08/30 | 19:00 | 81 | 76 | 87 | 29.77 | SSE | 5 | 0.00 |
| 7 | 08/30 | 18:00 | 83 | 76 | 82 | 29.79 | SSE | 7 | 0.00 |
| 8 | 08/30 | 17:00 | 84 | 76 | 79 | 29.80 | SSE | 4 | 0.00 |
| 9 | 08/30 | 16:00 | 84 | 76 | 78 | 29.81 | SSE | 4 | 0.00 |
| 10 | 08/30 | 15:00 | 84 | 77 | 81 | 29.84 | S | 5 | 0.00 |
| 11 | 08/30 | 14:00 | 84 | 76 | 79 | 29.87 | SE | 2 | 0.00 |
| 12 | 08/30 | 13:00 | 83 | 77 | 84 | 29.88 | SE | 3 | 0.00 |
| 13 | 08/30 | 12:00 | 81 | 77 | 89 | 29.90 | SSE | 2 | 0.00 |
| 14 | 08/30 | 11:00 | 80 | 77 | 92 | 29.91 | SSW | 3 | 0.00 |
| 15 | 08/30 | 10:00 | 78 | 76 | 94 | 29.93 | SSE | 7 | 0.00 |
| 16 | 08/30 | 09:00 | 76 | 76 | 100 | 29.93 | SSW | 1 | 0.00 |
| 17 | 08/30 | 08:00 | 75 | 75 | 100 | 29.93 | S | 0 | 0.00 |
| 18 | 08/30 | 07:00 | 74 | 73 | 100 | 29.92 | E | 0 | 0.00 |
| 19 | 08/30 | 06:00 | 74 | 73 | 100 | 29.91 | SSE | 1 | 0.00 |
| 20 | 08/30 | 05:00 | 75 | 75 | 100 | 29.92 | S | 0 | 0.00 |
| 21 | 08/30 | 04:00 | 74 | 73 | 99 | 29.92 | SE | 0 | 0.00 |
| 22 | 08/30 | 03:00 | 75 | 74 | 98 | 29.93 | E | 1 | 0.00 |
| 23 | 08/30 | 02:00 | 75 | 74 | 98 | 29.94 | SSE | 2 | 0.00 |
| 24 | 08/30 | 01:00 | 75 | 73 | 95 | 29.95 | ESE | 2 | 0.00 |